Weather History for Quincy, IL

Change the Weather History Date:

Monday, April 8, 2013

  Actual Average Record
Temperature  
Mean Temperature 64 °F 51 °F  
Max Temperature 73 °F 61 °F 84 °F (2001)
Min Temperature 54 °F 40 °F 21 °F (1972)
Degree Days  
Heating Degree Days 1 15  
Month to date heating degree days 132 127  
Since 1 July heating degree days 5185 5187  
Cooling Degree Days 0 0  
Month to date cooling degree days 0 0  
Year to date cooling degree days 0 2  
Growing Degree Days 13 (Base 50)    
Moisture  
Dew Point 56 °F    
Average Humidity 74    
Maximum Humidity 86    
Minimum Humidity 61    
Precipitation  
Precipitation 0.74 in 0.12 in 1.05 in (1906)
Month to date precipitation 0.79 0.89  
Year to date precipitation 8.41 6.75  
Sea Level Pressure  
Sea Level Pressure 29.74 in    
Wind  
Wind Speed 7 mph (South)    
Max Wind Speed 16 mph    
Max Gust Speed 21 mph    
Visibility 8 miles    
Events Rain , Thunderstorm    
T = Trace of Precipitation, MM = Missing Value Source: NWS Daily Summary

Daily Weather History Graph

Daily Weather History Graph

Search for Another Location

Airport:

Trip Planner

Search our weather history database for the weather conditions in past years. The results will help you decide how hot, cold, wet, or windy it might be!

Date:

Astronomy

Apr. 08, 2013 Rise Set
Actual Time 6:37 AM CDT 7:36 PM CDT
Civil Twilight 6:09 AM CDT 8:04 PM CDT
Nautical Twilight 5:36 AM CDT 8:36 PM CDT
Astronomical Twilight 5:02 AM CDT 9:11 PM CDT
Moon 5:27 AM CDT (4/8) 6:11 PM CDT (4/8)
Length of Visible Light 13h 54m
Length of Day
12h 59m
Waning Crescent, 3% of the Moon is Illuminated
Apr 8
Waning Crescent
Apr 10
New
Apr 18
First Quarter
Apr 25
Full
May 2
Last Quarter

Hourly Weather History & Observations

Time (CDT) Temp. Dew Point Humidity Pressure Visibility Wind Dir Wind Speed Gust Speed Precip Events Conditions
12:54 AM 60.1 °F 55.9 °F 86% 29.71 in 8.0 mi ESE 4.6 mph - 0.05 in Rain Light Rain
1:01 AM 60.8 °F 55.4 °F 82% 29.72 in 10.0 mi ESE 4.6 mph - 0.00 in Rain , Thunderstorm Light Rain
1:33 AM 59.0 °F 55.4 °F 88% 29.74 in 2.0 mi North - - 0.14 in Rain , Thunderstorm Heavy Rain
1:43 AM 57.2 °F 57.2 °F 100% 29.74 in 1.5 mi North - - 0.24 in Rain , Thunderstorm Heavy Thunderstorms and Rain
1:54 AM 57.9 °F 57.0 °F 97% 29.71 in 1.0 mi North - - 0.37 in Rain , Thunderstorm Heavy Rain
2:01 AM 59.0 °F 57.2 °F 94% 29.71 in 3.0 mi North - - 0.02 in Rain , Thunderstorm Rain
2:11 AM 60.8 °F 57.2 °F 88% 29.71 in 6.0 mi North - - 0.03 in Rain Light Rain
2:21 AM 60.8 °F 57.2 °F 88% 29.69 in 8.0 mi North - - 0.03 in Rain Light Rain
2:54 AM 61.0 °F 55.9 °F 83% 29.63 in 10.0 mi North - - 0.03 in Rain Light Rain
3:08 AM 60.8 °F 55.4 °F 82% 29.65 in 10.0 mi North - - 0.01 in Rain , Thunderstorm Light Rain
3:24 AM 60.8 °F 55.4 °F 82% 29.70 in 1.5 mi North - - 0.23 in Rain , Thunderstorm Heavy Thunderstorms and Rain
3:35 AM 60.8 °F 55.4 °F 82% 29.63 in 2.5 mi North - - 0.34 in Rain , Thunderstorm Light Thunderstorms and Rain
3:42 AM 60.8 °F 57.2 °F 88% 29.64 in 8.0 mi North - - 0.34 in Rain , Thunderstorm Light Thunderstorms and Rain
3:54 AM 57.9 °F 53.1 °F 84% 29.63 in 10.0 mi North - - 0.34 in Rain , Thunderstorm Light Rain
4:01 AM 57.2 °F 50.0 °F 77% 29.64 in 10.0 mi North - - 0.00 in   Overcast
4:54 AM 57.0 °F 48.9 °F 74% 29.64 in 10.0 mi North - - 0.00 in   Clear
5:54 AM 54.0 °F 48.9 °F 83% 29.65 in 10.0 mi North - - N/A   Partly Cloudy
6:54 AM 55.9 °F 51.1 °F 84% 29.70 in 10.0 mi SW 12.7 mph - N/A   Overcast
7:54 AM 57.0 °F 53.1 °F 87% 29.74 in 10.0 mi WNW 8.1 mph - 0.00 in Rain Light Rain
8:08 AM 57.2 °F 53.6 °F 88% 29.75 in 10.0 mi SW 4.6 mph - 0.00 in   Overcast
8:54 AM 57.9 °F 54.0 °F 87% 29.76 in 10.0 mi NW 5.8 mph - 0.00 in   Overcast
9:54 AM 57.9 °F 53.1 °F 84% 29.78 in 10.0 mi NNW 3.5 mph - N/A   Mostly Cloudy
10:06 AM 59.0 °F 53.6 °F 82% 29.79 in 10.0 mi NNW 3.5 mph - N/A   Scattered Clouds
10:54 AM 62.1 °F 55.0 °F 78% 29.78 in 10.0 mi Variable 3.5 mph - N/A   Clear
11:40 AM 64.4 °F 55.4 °F 73% 29.80 in 10.0 mi SW 6.9 mph - N/A   Mostly Cloudy
11:54 AM 66.0 °F 57.9 °F 75% 29.78 in 10.0 mi SSW 6.9 mph - N/A   Overcast
12:54 PM 69.1 °F 59.0 °F 70% 29.78 in 10.0 mi SSW 9.2 mph - N/A   Mostly Cloudy
1:01 PM 68.0 °F 59.0 °F 73% 29.79 in 10.0 mi SW 9.2 mph - N/A   Mostly Cloudy
1:54 PM 71.1 °F 59.0 °F 66% 29.77 in 10.0 mi SW 9.2 mph - N/A   Overcast
2:14 PM 71.6 °F 57.2 °F 60% 29.78 in 10.0 mi SSW 4.6 mph - N/A   Mostly Cloudy
2:54 PM 72.0 °F 59.0 °F 64% 29.76 in 10.0 mi SSW 4.6 mph - N/A   Scattered Clouds
3:54 PM 71.1 °F 57.9 °F 63% 29.76 in 10.0 mi SSW 6.9 mph - N/A   Scattered Clouds
4:54 PM 72.0 °F 57.9 °F 61% 29.77 in 10.0 mi South 4.6 mph - N/A   Clear
5:54 PM 71.1 °F 59.0 °F 66% 29.77 in 10.0 mi SSE 3.5 mph - N/A   Partly Cloudy
6:54 PM 70.0 °F 60.1 °F 71% 29.78 in 10.0 mi East 5.8 mph - N/A   Clear
7:54 PM 68.0 °F 57.9 °F 70% 29.79 in 10.0 mi ESE 8.1 mph - N/A   Clear
8:54 PM 63.0 °F 57.0 °F 81% 29.80 in 10.0 mi NE 5.8 mph - N/A   Clear
9:54 PM 64.9 °F 57.0 °F 75% 29.81 in 10.0 mi East 8.1 mph - N/A   Clear
10:54 PM 66.0 °F 57.0 °F 73% 29.82 in 10.0 mi ESE 8.1 mph - N/A   Overcast
11:54 PM 64.9 °F 55.9 °F 73% 29.82 in 10.0 mi SE 6.9 mph - N/A   Mostly Cloudy